Wind_Speed
9 5 3 4 7 7 21 18 16 21 19 16 17 16 14 12 11 9 9 5 3 3 5 8 8 6 7 7 8 9 11 12 13 13 12 12 13 14 15 16 16 17 17 16 16 15 15 14 14
6 1 5 12 13 9 16 16 17 22 19 19 19 21 18 14 11 10 10 7 5 8 9 8 6 5 6 6 7 9 10 11 10 11 12 12 13 15 16 18 19 19 18 18 16 15 14 14 15
7 12 12 13 12 16 11 11 17 23 26 22 22 20 17 14 13 13 10 9 10 7 5 4 4 4 5 6 8 9 9 9 10 11 12 13 14 16 17 17 17 17 17 17 17 16 15 16 16
10 7 3 9 11 10 7 9 19 24 24 21 21 20 20 13 13 13 13 11 8 4 4 4 5 5 6 7 8 7 8 9 10 11 11 12 12 14 16 17 18 18 17 16 16 15 13 14 15
8 7 6 6 11 8 5 16 25 26 24 18 20 21 17 14 10 9 8 8 5 3 3 4 5 5 5 6 6 7 8 8 8 8 8 10 12 14 16 15 14 14 13 12 11 10 10 11 13
8 7 4 1 8 6 13 21 25 27 21 18 17 16 16 13 10 8 8 8 6 5 5 5 5 5 5 5 6 7 8 8 7 7 9 11 13 13 14 13 13 12 12 12 11 11 13 12 15
9 7 7 3 6 6 17 22 23 24 24 20 19 16 14 8 9 7 6 5 5 6 6 6 6 7 6 6 7 7 8 9 9 10 12 13 12 11 13 11 10 11 11 12 12 13 13 14 15
11 12 9 4 4 7 13 19 20 24 26 22 21 14 7 6 8 3 5 3 3 5 7 7 8 8 7 6 6 7 9 9 10 11 12 12 12 10 11 8 9 11 12 12 11 12 11 11 12
14 14 6 5 3 2 10 15 18 20 23 26 20 11 8 9 7 6 4 3 4 7 8 8 8 7 6 5 6 7 8 10 11 12 13 13 10 8 9 8 9 13 16 16 15 11 11 13 13
15 16 5 4 2 3 8 10 15 18 25 25 18 14 12 11 9 8 6 4 5 8 7 7 7 6 6 7 7 8 10 12 13 14 14 12 7 7 9 9 11 15 16 15 14 11 12 12 13
17 16 9 1 4 2 5 7 12 19 25 20 17 17 14 13 13 13 9 4 4 7 7 6 7 7 7 8 8 8 9 10 10 10 10 10 8 7 8 9 12 14 13 13 10 7 10 12 13
18 16 15 5 6 6 7 4 13 18 18 14 15 14 12 13 13 11 9 5 3 5 6 7 7 7 7 8 9 10 10 9 9 10 9 9 9 7 7 9 12 11 10 9 10 10 11 13 11
21 18 16 10 7 7 9 6 17 19 12 10 12 11 10 10 10 10 8 5 5 4 4 5 7 8 9 11 11 11 11 10 10 9 9 11 10 9 9 11 10 10 9 9 9 11 13 13 10
22 21 18 14 11 14 13 11 15 13 10 8 13 10 9 10 7 8 7 5 7 4 4 5 6 8 7 8 8 9 9 9 7 6 8 8 7 8 9 11 11 11 10 9 9 12 12 13 13
26 23 21 17 17 16 12 8 11 14 14 9 10 5 8 8 10 6 4 3 4 5 5 4 4 5 6 8 9 10 11 11 11 11 11 9 10 10 12 14 14 14 13 13 12 13 14 15 15
29 27 25 20 19 16 14 3 8 11 11 7 6 3 6 4 6 8 5 2 3 5 7 9 7 7 8 9 11 12 14 15 16 15 15 13 14 14 16 19 20 20 19 19 18 18 19 20 22
32 29 28 26 24 19 16 5 5 5 10 5 5 7 8 9 6 5 5 4 5 5 7 8 9 8 9 10 12 15 16 18 20 19 19 19 19 19 19 19 20 21 20 22 23 24 23 23 24
36 34 33 32 30 24 21 10 9 3 8 6 4 7 8 13 11 6 5 3 3 7 10 10 8 11 13 14 15 18 18 21 24 24 22 22 21 20 18 20 19 17 22 22 23 23 25 25 24
38 37 36 34 32 28 27 23 15 11 6 6 4 8 6 11 11 5 6 9 8 7 9 10 10 12 13 15 16 20 23 22 24 28 25 21 20 19 20 20 17 17 21 22 19 19 21 24 23
43 40 37 35 32 31 29 28 22 15 10 6 2 4 6 7 11 5 8 13 13 12 11 9 7 7 10 11 19 20 20 23 25 29 26 25 23 22 20 18 18 19 21 23 24 24 21 19 18
39 39 44 38 35 31 33 33 27 19 15 10 5 4 9 6 9 4 8 12 16 15 11 9 11 10 13 16 18 17 19 22 28 29 27 26 27 28 25 23 21 19 22 23 24 26 26 27 27
35 41 48 45 45 40 41 40 36 26 17 17 11 2 9 8 9 8 11 12 12 17 13 12 8 12 14 19 19 17 23 25 26 22 24 29 32 29 31 29 26 23 23 25 26 27 27 30 32
36 44 50 48 47 44 38 43 37 28 24 16 12 2 5 6 11 13 11 8 13 16 12 11 13 11 11 15 20 21 24 24 24 24 22 32 33 33 35 36 32 27 25 25 25 28 32 34 33
38 39 43 43 42 42 38 45 39 31 23 20 16 11 8 12 13 17 11 11 14 13 16 17 13 12 13 15 16 19 19 20 15 21 27 31 34 25 34 39 42 34 29 26 29 30 33 35 37
36 37 42 43 42 39 38 45 40 33 29 26 20 17 14 13 13 20 18 18 15 16 18 18 13 11 15 14 15 16 18 19 17 21 27 30 29 29 34 37 37 29 27 30 33 38 39 43 44
32 37 41 44 41 39 38 44 43 34 32 28 23 19 20 18 19 21 24 22 23 24 20 15 13 13 18 17 18 17 17 18 21 22 26 28 26 25 33 34 30 35 35 32 37 40 44 46 48
33 37 38 40 42 42 38 42 42 39 36 35 29 22 20 22 24 22 25 22 26 27 21 15 17 11 16 18 19 20 23 21 24 26 28 28 31 32 32 33 30 48 41 40 39 40 44 47 50
31 32 36 39 41 42 41 43 45 37 33 32 33 30 28 30 31 32 30 30 34 35 39 19 19 15 15 19 20 22 26 27 26 29 31 32 33 33 32 38 38 42 47 49 50 48 48 49 50
34 33 35 35 41 39 41 43 36 34 32 31 35 38 30 22 23 24 29 32 35 42 34 18 21 20 16 21 22 25 28 29 28 30 33 35 38 36 38 38 40 45 48 50 51 53 54 55 55
33 34 34 40 41 40 41 43 38 34 29 30 34 39 36 27 25 24 21 30 32 40 22 23 23 21 20 22 24 27 27 27 32 34 36 39 38 39 38 42 43 46 49 51 53 54 54 52 53
Wind_Direction
182 195 96 115 135 85 39 25 35 43 31 19 21 27 20 18 14 17 19 9 25 25 9 343 329 336 340 318 316 318 314 309 306 306 305 307 309 310 309 308 309 310 312 311 308 310 307 301 294
161 182 130 121 121 74 46 14 40 40 31 34 36 35 25 23 26 27 22 8 17 22 3 337 333 338 344 340 333 318 313 311 309 310 311 310 308 307 307 307 307 307 307 308 310 310 306 301 296
165 117 121 127 110 85 49 30 60 50 36 31 35 30 29 36 37 44 41 36 35 13 347 301 313 351 348 351 341 330 316 307 302 298 301 309 312 311 311 312 312 312 312 313 313 309 307 301 299
186 159 163 130 118 81 32 59 62 51 36 28 27 25 21 20 36 37 35 16 20 356 287 290 313 338 358 342 325 312 297 289 292 299 311 311 313 311 314 317 317 318 314 308 305 307 311 307 301
203 211 235 142 103 60 55 60 51 43 26 15 15 10 5 6 21 11 11 20 7 3 9 48 41 28 357 327 314 287 276 279 292 307 313 313 312 314 317 319 330 339 343 333 328 338 335 329 322
200 193 202 183 93 71 54 56 52 37 24 6 5 350 353 1 11 4 7 21 18 19 38 36 28 13 342 314 299 293 293 299 307 310 306 307 316 322 326 333 343 343 349 341 338 338 332 326 323
197 206 240 199 139 39 56 50 43 30 28 11 359 342 339 348 357 358 4 19 26 46 54 49 36 21 356 328 315 305 308 311 310 303 300 304 313 324 335 343 351 8 4 348 344 335 336 332 330
201 221 207 219 31 21 51 54 44 33 18 3 355 342 352 354 346 6 329 29 54 73 75 59 45 34 18 354 341 334 333 323 315 309 306 309 316 324 333 339 352 1 5 352 342 340 344 352 358
221 235 203 178 177 326 50 54 43 29 8 357 0 26 16 347 348 24 345 39 81 82 73 62 50 41 42 21 12 360 338 324 321 318 322 322 320 325 332 338 351 352 2 356 355 356 9 16 15
225 245 235 152 223 321 35 44 49 26 6 355 356 8 18 17 3 17 6 48 80 76 68 61 58 33 21 3 354 338 329 325 328 330 339 351 347 333 329 347 1 360 1 358 360 17 21 23 24
233 249 270 154 222 286 329 356 44 22 5 358 348 359 18 21 8 1 5 28 58 78 75 62 43 21 6 7 11 15 21 12 8 359 5 12 24 14 354 354 356 355 3 1 360 16 9 17 21
232 254 276 248 234 317 314 346 29 23 16 3 347 352 9 25 20 5 9 353 13 70 61 54 54 41 30 49 47 44 50 38 17 17 16 12 11 356 342 357 348 358 360 359 347 358 360 8 15
239 246 265 262 250 313 309 20 29 16 23 360 349 338 1 25 31 21 27 357 348 33 53 56 60 50 56 34 35 40 44 41 34 34 28 37 26 14 356 345 349 347 346 348 341 338 340 345 351
248 247 256 260 264 288 302 41 31 38 49 11 349 327 4 2 23 41 40 24 355 2 26 38 42 36 32 14 16 10 11 9 358 1 358 358 358 353 343 336 339 333 332 325 325 317 320 318 321
239 245 251 247 258 285 293 53 64 62 63 17 1 320 13 6 355 22 62 77 6 336 349 14 32 21 3 356 348 342 339 329 329 332 329 329 319 317 315 312 310 308 309 307 305 302 304 301 303
235 244 252 251 257 277 291 325 87 58 52 46 36 84 26 351 354 350 350 353 355 331 325 327 334 344 335 329 326 320 317 316 315 312 307 302 300 302 303 302 304 303 303 301 295 292 292 293 297
238 239 248 249 256 268 284 252 187 85 61 59 55 86 52 18 338 343 317 329 307 315 307 301 309 312 311 310 314 306 307 303 302 305 300 298 298 300 303 306 307 309 312 310 305 296 291 289 290
236 236 243 247 259 263 291 244 222 219 82 75 357 14 29 28 29 352 327 327 305 288 283 286 299 301 301 301 305 306 305 298 300 302 298 292 295 302 303 303 310 314 328 322 311 299 298 294 290
233 241 245 254 262 271 287 272 238 240 149 101 32 341 10 12 11 32 352 321 316 295 287 295 306 310 309 317 312 303 305 299 302 302 300 296 295 295 296 304 310 307 313 318 317 320 319 301 293
233 241 241 245 257 269 274 275 241 245 219 191 208 344 344 1 360 28 48 357 356 335 322 327 353 337 328 318 326 299 312 301 308 308 305 300 300 296 294 297 296 307 307 313 314 314 313 320 317
229 239 240 239 250 258 267 266 255 245 244 230 163 292 337 311 337 353 342 337 355 345 324 317 336 353 347 350 344 327 307 296 300 297 300 302 301 300 295 291 294 297 298 304 307 305 313 312 309
239 239 240 244 245 249 262 259 248 249 244 235 187 5 318 295 280 279 313 341 354 344 314 323 331 343 356 358 349 339 347 336 315 297 294 301 287 289 300 298 291 290 298 299 306 307 307 309 309
233 236 242 246 250 250 252 255 252 249 249 247 210 223 286 287 263 271 301 328 334 340 331 331 331 336 335 344 347 338 358 358 351 359 331 310 322 296 286 282 284 293 293 294 295 302 304 302 303
228 234 237 238 239 243 247 251 259 258 260 247 236 228 248 254 284 278 269 293 307 307 310 323 342 345 356 339 337 341 355 351 337 339 333 330 319 316 310 295 279 268 284 301 306 306 304 303 305
234 233 233 235 238 248 250 250 258 259 266 268 245 246 230 220 259 278 285 290 294 287 292 309 330 325 351 342 337 334 346 346 340 331 328 327 324 299 310 310 284 294 308 306 308 306 304 303 304
238 238 235 236 241 249 253 250 252 257 267 266 248 244 236 234 247 268 286 296 285 275 281 294 295 306 333 332 328 334 335 342 340 332 324 324 317 322 319 303 278 297 322 311 306 303 303 301 300
232 237 238 244 252 253 248 252 258 263 271 266 263 257 249 254 270 273 275 278 278 271 264 282 307 301 323 321 321 327 328 331 334 332 327 324 317 313 316 301 284 310 316 315 307 301 294 294 295
232 237 242 245 249 251 253 251 258 264 266 266 268 268 268 279 266 276 268 271 267 271 258 252 289 288 301 311 315 320 322 321 324 328 325 325 324 320 320 314 308 308 312 312 311 307 302 299 299
234 229 236 243 250 256 254 250 253 261 262 267 271 274 290 285 270 277 274 265 265 263 260 308 284 283 297 300 310 315 312 316 318 322 319 321 321 313 309 310 310 312 310 309 308 306 306 305 302
243 240 236 241 246 250 258 265 257 255 264 270 277 277 278 279 279 281 300 269 296 263 255 285 279 281 292 301 308 313 318 320 324 320 317 317 316 310 311 312 311 309 308 308 307 307 306 305 302
Height
5894 5894 5897 5898 5903 5901 5898 5897 5893 5890 5889 5889 5888 5888 5887 5885 5885 5887 5884 5884 5884 5884 5884 5885 5886 5885 5884 5883 5882 5882 5882 5881 5880 5880 5879 5879 5878 5877 5876 5875 5874 5874 5873 5872 5872 5872 5870 5869 5868
5896 5896 5898 5900 5901 5901 5901 5898 5893 5890 5890 5890 5890 5887 5887 5887 5885 5883 5883 5883 5882 5882 5883 5884 5885 5884 5883 5882 5882 5882 5881 5880 5879 5879 5878 5877 5876 5876 5875 5874 5874 5872 5871 5870 5870 5869 5868 5866 5865
5897 5898 5900 5901 5901 5902 5902 5900 5895 5892 5890 5890 5890 5890 5889 5888 5885 5884 5884 5883 5882 5883 5884 5885 5884 5884 5883 5883 5883 5882 5881 5880 5879 5878 5877 5876 5875 5873 5873 5872 5872 5871 5870 5869 5867 5867 5867 5866 5863
5897 5900 5901 5902 5903 5905 5903 5901 5894 5892 5893 5892 5890 5891 5889 5888 5886 5886 5885 5885 5884 5884 5885 5885 5885 5884 5884 5884 5883 5881 5880 5880 5878 5877 5876 5874 5873 5871 5870 5870 5869 5869 5868 5867 5865 5864 5864 5863 5861
5898 5900 5900 5902 5904 5904 5902 5898 5893 5892 5892 5891 5892 5891 5891 5889 5888 5887 5886 5885 5884 5885 5886 5885 5885 5884 5883 5882 5881 5881 5879 5878 5877 5876 5875 5874 5873 5871 5869 5868 5868 5868 5867 5864 5863 5863 5863 5861 5860
5898 5900 5901 5902 5904 5904 5901 5898 5895 5894 5894 5893 5894 5893 5893 5891 5889 5888 5886 5885 5885 5886 5886 5885 5884 5883 5882 5882 5881 5881 5880 5880 5879 5877 5876 5875 5874 5873 5871 5869 5868 5868 5866 5863 5862 5862 5860 5858 5856
5897 5898 5899 5902 5905 5903 5899 5898 5896 5896 5896 5895 5895 5895 5893 5892 5890 5889 5888 5887 5887 5887 5887 5886 5883 5882 5881 5882 5881 5880 5879 5879 5878 5877 5876 5874 5874 5873 5871 5869 5869 5868 5867 5863 5861 5859 5858 5856 5854
5896 5897 5898 5900 5900 5901 5900 5899 5898 5897 5897 5895 5894 5895 5893 5892 5891 5890 5890 5888 5888 5887 5886 5884 5883 5882 5882 5882 5881 5881 5880 5878 5877 5876 5875 5874 5873 5872 5870 5869 5868 5867 5866 5863 5862 5859 5857 5854 5852
5896 5895 5897 5900 5900 5901 5901 5900 5900 5899 5898 5895 5894 5895 5893 5892 5890 5890 5890 5889 5888 5886 5885 5884 5884 5883 5882 5882 5881 5881 5880 5879 5877 5875 5874 5873 5872 5871 5869 5868 5867 5866 5866 5864 5861 5860 5858 5856 5852
5895 5894 5896 5899 5899 5901 5901 5901 5901 5901 5900 5896 5893 5894 5893 5891 5891 5890 5890 5889 5888 5886 5885 5884 5883 5884 5883 5882 5882 5882 5881 5880 5878 5876 5875 5873 5872 5871 5869 5869 5868 5866 5864 5863 5862 5861 5859 5857 5854
5892 5894 5895 5899 5899 5900 5901 5902 5902 5902 5901 5898 5894 5891 5891 5891 5890 5890 5890 5889 5888 5887 5885 5885 5884 5884 5884 5884 5883 5883 5881 5879 5877 5876 5875 5874 5872 5871 5870 5869 5868 5866 5865 5863 5861 5859 5859 5858 5856
5892 5893 5895 5899 5899 5900 5901 5902 5903 5902 5902 5900 5896 5892 5892 5891 5890 5891 5891 5892 5891 5888 5887 5887 5886 5885 5885 5885 5884 5883 5881 5879 5878 5877 5875 5873 5872 5871 5870 5867 5866 5865 5865 5864 5862 5861 5860 5859 5857
5890 5893 5894 5897 5899 5899 5900 5901 5901 5902 5903 5902 5899 5896 5893 5893 5893 5892 5893 5894 5893 5890 5889 5889 5889 5888 5888 5888 5887 5885 5883 5882 5880 5880 5877 5874 5872 5871 5869 5868 5866 5865 5865 5865 5862 5860 5860 5859 5857
5890 5892 5894 5896 5899 5899 5899 5900 5900 5901 5902 5903 5901 5899 5896 5894 5895 5895 5895 5895 5896 5895 5893 5891 5889 5889 5888 5889 5889 5887 5885 5884 5881 5879 5877 5875 5872 5870 5868 5867 5867 5866 5864 5862 5861 5858 5857 5855 5855
5889 5891 5893 5895 5897 5899 5899 5900 5900 5901 5902 5903 5903 5901 5898 5897 5895 5897 5897 5895 5895 5894 5894 5892 5890 5889 5889 5889 5888 5886 5884 5882 5881 5879 5877 5876 5873 5871 5869 5868 5865 5863 5862 5860 5859 5857 5854 5852 5851
5887 5889 5890 5894 5895 5897 5897 5897 5899 5901 5902 5902 5903 5901 5899 5897 5897 5896 5896 5894 5893 5893 5892 5891 5890 5889 5888 5887 5886 5885 5882 5880 5879 5877 5876 5874 5873 5871 5868 5866 5864 5862 5860 5858 5856 5855 5853 5850 5848
5885 5886 5887 5890 5892 5895 5896 5896 5898 5899 5900 5902 5902 5900 5900 5898 5897 5897 5896 5894 5893 5893 5892 5891 5890 5889 5887 5886 5885 5884 5881 5879 5876 5875 5873 5871 5870 5869 5867 5865 5862 5859 5857 5855 5853 5851 5849 5847 5845
5882 5884 5885 5887 5889 5892 5894 5895 5897 5898 5898 5899 5901 5901 5899 5899 5895 5894 5894 5894 5893 5894 5893 5891 5890 5889 5888 5887 5885 5883 5880 5877 5875 5872 5870 5868 5867 5866 5863 5862 5859 5857 5854 5851 5849 5847 5847 5845 5841
5879 5881 5883 5883 5885 5888 5891 5893 5894 5896 5896 5897 5899 5899 5898 5896 5894 5893 5893 5893 5893 5893 5892 5891 5890 5890 5889 5886 5883 5881 5879 5876 5873 5870 5868 5865 5863 5861 5860 5857 5854 5851 5850 5847 5845 5843 5841 5840 5838
5874 5877 5881 5882 5883 5884 5885 5889 5892 5893 5895 5895 5896 5897 5897 5895 5894 5893 5892 5893 5891 5889 5889 5889 5888 5887 5885 5882 5880 5876 5874 5873 5870 5867 5865 5864 5860 5857 5854 5851 5848 5847 5846 5843 5841 5838 5835 5834 5832
5869 5873 5877 5881 5879 5880 5881 5885 5886 5889 5893 5893 5893 5894 5894 5893 5892 5891 5890 5889 5888 5886 5886 5884 5884 5881 5878 5876 5871 5869 5867 5864 5862 5861 5860 5859 5858 5855 5851 5848 5846 5843 5840 5838 5836 5833 5829 5827 5826
5866 5871 5870 5875 5876 5878 5878 5879 5881 5886 5890 5890 5889 5891 5892 5891 5891 5890 5888 5887 5885 5883 5881 5881 5878 5876 5872 5870 5867 5863 5862 5858 5857 5854 5856 5856 5853 5849 5847 5845 5842 5838 5835 5834 5830 5828 5825 5823 5821
5864 5864 5864 5867 5869 5871 5873 5873 5878 5882 5885 5888 5886 5887 5889 5889 5888 5887 5886 5885 5883 5880 5879 5878 5874 5871 5867 5866 5862 5861 5858 5856 5855 5854 5853 5850 5847 5844 5841 5838 5836 5833 5830 5827 5824 5821 5820 5818 5815
5856 5857 5858 5861 5863 5862 5868 5868 5872 5878 5882 5883 5882 5882 5884 5885 5885 5884 5884 5882 5880 5878 5877 5874 5870 5866 5864 5861 5858 5857 5856 5854 5851 5849 5847 5845 5840 5836 5834 5832 5827 5824 5822 5822 5819 5817 5814 5810 5807
5851 5852 5852 5854 5855 5858 5864 5862 5866 5873 5875 5879 5878 5878 5879 5880 5880 5879 5879 5877 5875 5873 5872 5871 5867 5864 5860 5858 5855 5854 5852 5850 5848 5845 5841 5839 5834 5831 5828 5824 5823 5822 5818 5816 5813 5810 5806 5802 5798
5845 5846 5847 5848 5851 5855 5857 5855 5860 5866 5868 5871 5871 5872 5873 5874 5874 5874 5873 5871 5868 5867 5867 5865 5862 5858 5855 5854 5853 5850 5848 5845 5843 5840 5837 5835 5830 5824 5822 5818 5816 5814 5811 5808 5805 5802 5798 5794 5789
5836 5840 5844 5845 5847 5848 5851 5853 5855 5860 5861 5863 5865 5868 5868 5869 5870 5869 5867 5865 5862 5860 5858 5858 5856 5852 5851 5851 5850 5846 5842 5838 5837 5833 5832 5830 5826 5821 5818 5815 5813 5808 5804 5801 5798 5793 5789 5784 5779
5831 5836 5838 5838 5838 5840 5843 5846 5849 5853 5855 5856 5858 5861 5864 5864 5864 5863 5861 5858 5855 5852 5850 5848 5848 5847 5844 5845 5844 5841 5838 5833 5831 5827 5824 5820 5816 5812 5808 5806 5804 5800 5796 5790 5785 5780 5776 5771 5765
5825 5827 5831 5834 5834 5833 5836 5839 5846 5847 5848 5850 5850 5853 5856 5856 5857 5857 5855 5851 5848 5843 5828 5835 5840 5840 5839 5840 5837 5835 5833 5829 5824 5820 5815 5812 5808 5806 5802 5798 5793 5789 5783 5778 5773 5768 5762 5756 5750
5821 5825 5827 5826 5827 5828 5828 5831 5838 5841 5842 5843 5844 5846 5850 5851 5850 5850 5847 5845 5837 5826 5831 5836 5834 5833 5831 5830 5829 5827 5823 5820 5816 5812 5808 5805 5801 5797 5792 5787 5783 5778 5772 5766 5761 5756 5750 5743 5736